Weather in Martynovka

Russia / Kurgan Oblast     54°54′47″N   62°29′09″E
temp.,
°C
wind,
m/s
gust,
m/s
humid.,
%
clouds,
%
prec.,
mm/h
press.,
hPa
HPBL,
m
6 march, sat
sat623:00−4nnw61194100 1.6 999511
02:00−7wnw51289100 0.5 1004353
05:00−13w5108956 0.5 1009189
08:00−16wsw45900 0.0 101079
11:00−10wsw59860 0.0 1011340
14:00−7wsw59800 0.0 1011818
17:00−7sw48856 0.0 1011245
20:00−11ssw48890 0.0 1011122
7 march, sun
sun723:00−12wsw478812 0.0 1012128
02:00−14wsw338945 0.0 101220
05:00−15wsw128873 0.0 101320
08:00−15n1190100 0.0 101220
11:00−11ne2288100 0.0 1011190
14:00−9ne3594100 0.3 1008349
17:00−9nne6995100 1.4 1005440
20:00−10n61094100 1.3 1005401
8 march, mon
mon823:00−12nnw51093100 1.6 1006331
02:00−18nw489467 0.0 1008119
05:00−20wnw479845 0.0 1011105
08:00−21w349323 0.0 101254
11:00−15sw358725 0.0 1012208
14:00−12s61086100 0.0 1011385
17:00−9ssw71491100 0.1 1009939
20:00−8ssw7148786 0.1 1009411
9 march, tue
tue923:00−8ssw7158872 0.1 1010360
02:00−7ssw6149097 0.0 1008366
05:00−5ssw9169399 0.8 1006806
08:00−4ssw91786100 0.1 1005748
11:00−3sw81388100 0.1 1005771
14:00−3ssw71092100 0.2 1004906
17:00−3ssw71295100 0.8 1003888
20:00−5wnw51385100 2.3 1004746
10 march, wed
wed1023:00−12w488667 2.3 1008116
02:00−14wsw45890 0.0 101058
05:00−15wsw348946 0.0 101038
08:00−15w1288100 0.0 101020
11:00−11sw1183100 0.0 1009179
14:00−9se0082100 0.0 1008404
17:00−9sw0092100 0.2 1007181
20:00−12w1196100 0.3 100721